Back to catalog

STARLINK-4624

AliveCommunicationsSSO
NORAD 53684·PAYLOAD·🇺🇸 United States

Launched Aug 31, 2022 from Vandenberg Space Force Base

Loading…

Next Passes (next 24 hours)

TLE

FreshSource: CelesTrak SupGP

Epoch: Sep 14, 2026, 13:46 UTC

1 53684C 22105AN  26257.57409722  .00052100  00000+0  36172-2 0  2579
2 53684  97.2820 131.6800 0002439  78.8045 346.2629 15.05631129    11

Track STARLINK-4624 in real time with AllMySat

Download on the App Store